Regional Weather Roundup
Issued by NWS

Home | Current Version | Previous Version | Graphics & Text | Print | Product List | Glossary On
Versions: 1 2 3 4 5 6 7 8 9 10 11 12 13 14 15 16 17 18 19 20 21 22 23 24 25 26 27 28 29 30 31 32 33 34 35 36 37 38 39 40 41 42 43 44 45 46 47 48 49 50
087
ASUS43 KFSD 301702
RWRSD

WEATHER ROUNDUP FOR SOUTH DAKOTA
NATIONAL WEATHER SERVICE SIOUX FALLS SD
1200 PM CDT TUE AUG 30 2016

NOTE: "FAIR" INDICATES FEW OR NO CLOUDS BELOW 12,000 FEET WITH NO
SIGNIFICANT WEATHER AND/OR OBSTRUCTIONS TO VISIBILITY.


SDZ001>005-009-010-012>017-301800-
NORTHWEST AND NORTH CENTRAL SOUTH DAKOTA

CITY           SKY/WX    TMP DP  RH WIND       PRES   REMARKS
BUFFALO          N/A     76  62  62 SE18      30.17F
FAITH            N/A     76  63  64 SE15      30.23F
MOBRIDGE       SUNNY     81  52  36 SE12      30.21S
$$

SDZ012>016-024>037-041>051-057-063-072>074-301800-
SOUTHWEST AND SOUTH CENTRAL SOUTH DAKOTA

CITY           SKY/WX    TMP DP  RH WIND       PRES   REMARKS
RAPID CTY ARPT SUNNY     72  64  76 S6        30.25F
PIERRE         SUNNY     77  68  73 SE14      30.20S
CUSTER         SUNNY     74  54  49 S8        30.38S
ELLSWORTH AFB  SUNNY     74  67  78 S12       30.25S
PHILIP         SUNNY     78  66  66 VRB3      30.21F
PINE RIDGE     SUNNY     78  63  59 SW5       30.26S
WINNER         FAIR      83  67  58 SE10      30.21S
$$

SDZ004>011-016>023-039-040-301800-
NORTHEAST SOUTH DAKOTA

CITY           SKY/WX    TMP DP  RH WIND       PRES   REMARKS
ABERDEEN       SUNNY     77  59  53 NE9       30.23F
WATERTOWN      SUNNY     75  60  59 NE8       30.25R
SISSETON         N/A     75  57  53 N3        30.23F
$$

SDZ017-020-022-023-036>040-048>070-301800-
SOUTHEAST SOUTH DAKOTA

CITY           SKY/WX    TMP DP  RH WIND       PRES   REMARKS
SIOUX FALLS    PTSUNNY   78  69  73 S8        30.22S
HURON          MOSUNNY   81  65  58 VRB6      30.20S
CHAMBERLAIN    SUNNY     83  70  63 E7        30.20S
MITCHELL       SUNNY     80  68  66 SE7       30.21S
YANKTON        CLOUDY    75  66  73 S7        30.20S
$$

ABBREVIATIONS USED IN REMARKS
   TC - TEMPERATURE IN CELSIUS
  WCI - WIND CHILL INDEX
   HX - HEAT INDEX
  VSB - VISIBILITY





USA.gov is the U.S. government's official web portal to all federal, state and local government web resources and services.